COSMOS 1256

Satellite information

Favourite Embed

Satellite Type and Status

PAYLOADIN ORBIT

Key statistics

Satellite COSMOS 1256 at a glance.

Uptime

16258

Days in orbit

Revolutions

≈ 12.5

Per day

Orbit

LEO

Low Earth Orbit

Inclination

74.0

Latest

Satellite identification and parameters

Extended collection of information and parameters for COSMOS 1256.

Object identification

Identified? True

Debris? False

Object name: COSMOS 1256

International designator: 1981-022G

Object number (NORAD): 12326

Object ID (CCSDS): 12326

Country: COMMONWEALTH OF INDEPENDENT STATES (CIS)

Current information (Y/N): Y

RCS size: MEDIUM

Orbital parameters

Period: 115.237 minutes

Inclination: 74.0335 deg

SMA: 7844.328 km

Apoapsis: 1476.349 km

Periapsis: 1456.037 km

RAAN: 2.0056 deg

Eccentricy: 0.00129475

Argument of periapsis: 223.9377 deg

Mean anomaly: 147.1866 deg

Mean motion: 12.49594621 rev/day

Mean motion (dot): -0.00000006 rev/day2

B* drag term: 0.000063217074 1/REarth

Two-line elements (TLE)

Creation date: Sept. 8, 2025, 6:18 p.m.

Reference frame: TEME

Reference center: EARTH

Epoch: Sept. 8, 2025, 2:26 p.m. UTC

TLE line 0: 0 COSMOS 1256

TLE line 1: 1 12326U 81022G 25251.60166865 -.00000006 00000-0 63217-4 0 9990

TLE line 2: 2 12326 74.0335 2.0056 0012948 223.9377 147.1866 12.49594621 30423

Live tracking on map

Real-time ground track for satellite COSMOS 1256.

In-orbit conjunctions

A list of the most updated potential collisions computed for object COSMOS 1256.

Target Orbit TCA Probability of collision Miss distance Type
COSMOS 2010 LEO 2024-07-30 16:40:17 0.0004778976 44.0 (m) PAYLOAD

Associated space launch

Military communications satellites

COSMOS 1256 was lifted into orbit during the mission ‘Kosmos-3M | Strela-1M 209-216’, on board a Kosmos-3M space rocket.

The launch took place on March 6, 1981, 11:31 a.m. from 132/2.

For more information about the launch, click the button.

Launch to space Kosmos-3M | Strela-1M 209-216
Kosmos-3M | Strela-1M 209-216

Agency: N/A

Status: Launch Successful

Launch date: March 6, 1981, 11:31 a.m. UTC

Rocket: Kosmos-3M

Launch pad: 132/2

Location: Plesetsk Cosmodrome, Russian Federation

...

Latest news about this satellite

There are no fresh news available about this satellite. Check back as we update our databases every day.


Newsletter sign-up

Weekly statistics, charts and insights to help you stay on top of the space industry.